Location: Stull Observatory
(42.2506°N, 77.7903°W)
Time: 00:21:44
(UTC-04:00)

ISS - All Passes

Search period start: 25 July 2016 00:00
Search period end: 04 August 2016 00:00
Orbit: 401 x 404 km, 51.6° (Epoch: 24 July)

Date Brightness Start Highest point End Pass type
(mag) Time Alt. Az. Time Alt. Az. Time Alt. Az.
25 Jul - 00:53:12 10° WNW 00:55:45 21° NNW 00:58:19 10° NE visible
25 Jul - 02:30:56 10° NW 02:33:04 16° N 02:35:12 10° NE visible
25 Jul - 04:07:11 10° NW 04:10:13 34° NNE 04:13:13 10° E visible
25 Jul - 05:43:38 10° WNW 05:46:39 34° SW 05:49:37 10° SSE daylight
25 Jul - 22:22:55 10° SW 22:26:03 50° SE 22:29:14 10° ENE visible
25 Jul - 23:59:46 10° W 00:02:38 27° NNW 00:05:30 10° NE visible
26 Jul - 01:37:46 10° NW 01:39:51 16° N 01:41:56 10° NE visible
26 Jul - 03:14:23 10° NW 03:17:07 24° NNE 03:19:51 10° ENE visible
26 Jul - 04:50:33 10° WNW 04:53:48 68° SW 04:57:02 10° SE visible
26 Jul - 21:30:29 10° SSW 21:33:15 26° SE 21:36:02 10° ENE visible
26 Jul - 23:06:28 10° W 23:09:34 41° NNW 23:12:41 10° NE visible
27 Jul - 00:44:26 10° NW 00:46:38 17° N 00:48:51 10° NE visible
27 Jul - 02:21:33 10° NW 02:23:59 19° NNE 02:26:23 10° ENE visible
27 Jul - 03:57:38 10° NW 04:00:52 64° NNE 04:04:06 10° ESE visible
27 Jul - 05:34:58 10° W 05:36:58 15° SW 05:38:58 10° S daylight
27 Jul - 20:38:46 10° SSE 20:40:32 14° SE 20:42:17 10° E daylight
27 Jul - 22:13:20 10° WSW 22:16:35 71° NNW 22:19:49 10° NE visible
27 Jul - 23:50:58 10° WNW 23:53:27 19° NNW 23:55:55 10° NE visible
28 Jul - 01:28:35 10° NW 01:30:46 16° N 01:32:57 10° NE visible
28 Jul - 03:04:47 10° NW 03:07:52 38° NNE 03:10:57 10° E visible
28 Jul - 04:41:21 10° WNW 04:44:14 29° SW 04:47:05 10° SSE visible
28 Jul - 21:20:27 10° SW 21:23:39 61° SE 21:26:53 10° ENE visible
28 Jul - 22:57:31 10° WNW 23:00:18 25° NNW 23:03:05 10° NE visible
29 Jul - 00:35:29 10° NW 00:37:33 16° N 00:39:38 10° NE visible
29 Jul - 02:11:58 10° NW 02:14:47 26° NNE 02:17:36 10° E visible
29 Jul - 03:48:12 10° WNW 03:51:24 56° SW 03:54:36 10° SE night (unlit)
29 Jul - 20:27:54 10° SSW 20:30:49 31° SE 20:33:45 10° ENE daylight
29 Jul - 22:04:10 10° W 22:07:12 36° NNW 22:10:16 10° NE visible
29 Jul - 23:42:10 10° NW 23:44:20 16° N 23:46:29 10° NE visible
30 Jul - 01:19:08 10° NW 01:21:39 20° NNE 01:24:09 10° ENE visible
30 Jul - 02:55:14 10° NW 02:58:29 76° NNE 03:01:45 10° ESE night (unlit)
30 Jul - 04:32:57 10° WSW 04:34:31 13° SW 04:36:04 10° SSW night (unlit)
30 Jul - 19:35:54 10° S 19:38:04 17° SE 19:40:13 10° E daylight
30 Jul - 21:10:58 10° WSW 21:14:11 60° NNW 21:17:25 10° NE visible
30 Jul - 22:48:44 10° WNW 22:51:07 19° NNW 22:53:31 10° NE visible
31 Jul - 00:26:12 10° NW 00:28:27 17° N 00:30:41 10° NE visible
31 Jul - 02:02:22 10° NW 02:05:30 43° NNE 02:08:37 10° ESE visible
31 Jul - 03:39:05 10° W 03:41:47 24° SW 03:44:29 10° SSE night (unlit)
31 Jul - 20:18:00 10° SW 20:21:14 74° SE 20:24:30 10° ENE daylight
31 Jul - 21:55:15 10° WNW 21:57:56 23° NNW 22:00:39 10° NE visible
31 Jul - 23:33:08 10° NW 23:35:13 16° N 23:37:18 10° NE visible
01 Aug - 01:09:31 10° NW 01:12:26 28° NNE 01:15:19 10° E visible
01 Aug - 02:45:49 10° WNW 02:48:58 46° SW 02:52:06 10° SE night (unlit)
01 Aug - 19:25:20 10° SSW 19:28:22 37° SE 19:31:25 10° ENE daylight
01 Aug - 21:01:51 10° W 21:04:49 32° NNW 21:07:49 10° NE visible
01 Aug - 22:39:52 10° NW 22:41:59 16° N 22:44:06 10° NE visible
02 Aug - 00:16:41 10° NW 00:19:17 21° NNE 00:21:53 10° ENE visible
02 Aug - 01:52:48 10° NW 01:56:04 89° N 01:59:19 10° SE night (unlit)
02 Aug - 03:31:15 10° WSW 03:32:01 11° SW 03:32:48 10° SW night (unlit)
02 Aug - 18:33:09 10° S 18:35:34 20° SE 18:38:01 10° E daylight
02 Aug - 20:08:35 10° WSW 20:11:46 51° NNW 20:14:58 10° NE daylight
02 Aug - 21:46:26 10° NW 21:48:45 18° N 21:51:05 10° NE visible
02 Aug - 23:23:47 10° NW 23:26:06 18° N 23:28:24 10° NE visible
03 Aug - 00:59:54 10° NW 01:03:05 50° NNE 01:06:16 10° ESE visible
03 Aug - 02:36:48 10° W 02:39:18 20° SW 02:41:47 10° S night (unlit)
03 Aug - 17:42:22 10° SE 17:42:52 10° SE 17:43:21 10° ESE daylight
03 Aug - 19:15:32 10° SW 19:18:48 88° SE 19:22:04 10° NE daylight
03 Aug - 20:52:57 10° WNW 20:55:33 22° NNW 20:58:11 10° NE visible
03 Aug - 22:30:45 10° NW 22:32:52 16° N 22:34:58 10° NE visible
